Total_Precipitation_Accumulation
0.40 0.81 1.06 0.92 0.84 0.82 0.77 0.78 0.83 0.72 0.61 0.64 0.59 0.53 0.58 0.61 0.66 0.60 0.63 0.62 0.49 0.44 0.48 0.47 0.42 0.47 0.52 0.64 0.76 0.96 1.34 1.77 1.97 1.85 1.83 1.88 1.93 1.86 1.75 1.71 1.70 1.76 1.76 1.75
0.47 0.60 0.47 0.48 0.53 0.65 0.72 0.78 0.82 0.74 0.52 0.51 0.51 0.46 0.47 0.54 0.55 0.53 0.50 0.52 0.46 0.42 0.40 0.38 0.36 0.42 0.46 0.65 0.82 0.96 1.29 1.75 1.98 2.09 2.18 2.35 2.50 2.35 2.21 2.20 2.16 2.22 2.24 2.41
0.40 0.36 0.28 0.38 0.56 0.68 0.72 0.74 0.74 0.68 0.52 0.48 0.47 0.51 0.45 0.50 0.45 0.44 0.44 0.45 0.40 0.34 0.32 0.33 0.34 0.40 0.44 0.58 0.74 0.91 1.14 1.45 1.80 2.06 2.27 2.53 2.75 2.72 2.60 2.44 2.41 2.47 2.54 2.69
0.38 0.30 0.30 0.38 0.47 0.59 0.75 0.51 0.47 0.47 0.61 0.63 0.49 0.74 0.54 0.52 0.48 0.43 0.43 0.42 0.41 0.34 0.33 0.37 0.37 0.40 0.45 0.54 0.67 0.85 1.07 1.32 1.57 1.78 2.15 2.57 2.85 2.94 2.85 2.75 2.70 2.69 2.70 2.73
0.36 0.28 0.30 0.35 0.36 0.44 0.57 0.44 0.44 0.47 0.57 0.53 0.38 0.54 0.53 0.46 0.50 0.46 0.43 0.40 0.38 0.35 0.37 0.40 0.43 0.48 0.54 0.61 0.68 0.82 0.99 1.25 1.51 1.71 2.04 2.43 2.68 2.87 2.99 2.81 2.68 2.70 2.70 2.72
0.29 0.22 0.25 0.30 0.33 0.36 0.45 0.49 0.48 0.51 0.58 0.64 0.32 0.46 0.59 0.44 0.42 0.43 0.40 0.35 0.37 0.40 0.43 0.47 0.58 0.66 0.70 0.67 0.73 0.86 0.98 1.15 1.32 1.46 1.67 1.89 2.24 2.46 2.76 2.73 2.64 2.74 2.70 2.62
0.36 0.30 0.25 0.27 0.34 0.36 0.44 0.70 0.93 0.96 0.91 0.61 0.26 0.42 0.57 0.44 0.37 0.37 0.39 0.37 0.40 0.43 0.46 0.55 0.71 0.81 0.86 0.77 0.75 0.85 1.02 1.10 1.19 1.29 1.38 1.52 1.76 1.88 2.22 2.52 2.49 2.38 2.42 2.46
0.40 0.41 0.25 0.24 0.31 0.37 0.38 0.61 0.99 1.14 0.99 0.63 0.42 0.59 0.64 0.49 0.41 0.36 0.34 0.37 0.41 0.46 0.53 0.72 0.90 0.99 1.01 0.91 0.85 0.92 1.09 1.17 1.20 1.24 1.28 1.38 1.46 1.49 1.65 1.86 1.95 1.95 1.99 2.22
0.41 0.36 0.23 0.23 0.23 0.26 0.36 0.43 0.49 0.72 0.68 0.69 0.63 0.72 0.65 0.44 0.42 0.42 0.45 0.49 0.60 0.68 0.74 0.89 1.07 1.16 1.08 0.97 0.89 0.96 1.10 1.24 1.27 1.30 1.36 1.44 1.43 1.38 1.46 1.47 1.58 1.74 1.76 1.81
0.45 0.40 0.26 0.25 0.26 0.26 0.27 0.34 0.53 0.79 1.01 1.02 0.80 0.80 0.80 0.66 0.59 0.55 0.58 0.63 0.76 0.86 0.94 1.04 1.21 1.26 1.15 1.03 0.95 1.00 1.12 1.24 1.44 1.57 1.51 1.47 1.53 1.57 1.77 1.77 1.60 1.53 1.67 1.71
0.57 0.57 0.34 0.29 0.28 0.29 0.32 0.43 0.60 0.82 0.86 1.16 1.29 1.15 0.89 0.81 0.78 0.79 0.82 0.85 0.91 1.04 1.05 1.05 1.18 1.27 1.19 1.01 0.96 0.96 1.02 1.14 1.27 1.31 1.36 1.33 1.41 1.53 1.79 1.98 1.93 1.73 1.69 1.68
0.55 0.73 0.52 0.33 0.30 0.32 0.40 0.53 0.78 1.20 1.14 1.04 1.26 1.22 0.85 0.77 0.80 0.80 0.81 0.81 0.86 0.95 0.95 1.01 1.08 1.05 0.98 0.86 0.80 0.81 0.84 0.96 1.11 1.13 1.19 1.27 1.30 1.40 1.51 1.63 1.66 1.59 1.46 1.41
0.71 0.96 0.96 0.77 0.69 0.53 0.60 0.62 0.72 0.96 1.10 1.13 1.28 1.21 0.78 0.71 0.66 0.68 0.72 0.75 0.76 0.76 0.76 0.79 0.83 0.82 0.81 0.83 0.83 0.79 0.80 0.89 0.98 1.05 1.14 1.24 1.24 1.25 1.25 1.29 1.25 1.26 1.25 1.27
0.72 0.82 0.92 0.99 0.91 0.82 0.79 0.68 0.65 0.90 1.21 1.10 1.03 0.95 0.75 0.67 0.63 0.66 0.68 0.69 0.71 0.64 0.58 0.61 0.64 0.70 0.77 0.80 0.82 0.79 0.76 0.85 0.97 1.15 1.23 1.30 1.31 1.32 1.32 1.29 1.26 1.26 1.24 1.26
0.62 0.65 0.50 0.45 0.46 0.59 0.63 0.55 0.56 0.66 0.78 0.95 0.87 0.80 0.66 0.62 0.67 0.71 0.69 0.63 0.60 0.53 0.46 0.48 0.51 0.58 0.63 0.69 0.73 0.76 0.76 0.83 0.91 1.04 1.17 1.25 1.34 1.41 1.34 1.22 1.16 1.23 1.21 1.19
0.52 0.58 0.43 0.35 0.32 0.42 0.50 0.48 0.50 0.53 0.58 0.70 0.75 0.73 0.57 0.52 0.51 0.54 0.51 0.44 0.45 0.45 0.39 0.38 0.43 0.49 0.52 0.55 0.60 0.62 0.71 0.88 0.91 0.96 1.04 1.24 1.36 1.30 1.26 1.15 1.11 1.11 1.11 1.12
0.48 0.61 0.69 0.54 0.39 0.47 0.70 0.64 0.64 0.67 0.63 0.65 0.61 0.50 0.34 0.32 0.34 0.39 0.40 0.38 0.42 0.40 0.36 0.34 0.35 0.39 0.41 0.47 0.55 0.62 0.70 0.82 0.86 0.90 1.04 1.24 1.28 1.19 1.12 1.15 1.17 1.10 1.08 1.12
0.40 0.61 0.85 0.67 0.64 0.98 1.03 0.73 0.70 0.68 0.49 0.35 0.30 0.25 0.23 0.30 0.28 0.27 0.28 0.31 0.34 0.33 0.30 0.29 0.29 0.31 0.35 0.40 0.48 0.56 0.63 0.69 0.75 0.81 0.94 1.12 1.15 1.12 1.16 1.14 1.12 1.04 0.99 0.99
0.35 0.62 0.92 0.81 0.83 0.94 0.82 0.57 0.51 0.54 0.42 0.22 0.21 0.22 0.21 0.24 0.23 0.20 0.20 0.20 0.22 0.23 0.20 0.20 0.22 0.25 0.29 0.29 0.35 0.42 0.47 0.52 0.57 0.67 0.82 0.93 0.95 1.01 1.04 1.01 1.03 0.98 0.90 0.90
0.48 0.67 1.03 0.99 1.10 1.02 0.61 0.38 0.35 0.47 0.61 0.27 0.20 0.20 0.17 0.18 0.24 0.21 0.15 0.13 0.14 0.14 0.14 0.14 0.16 0.20 0.25 0.25 0.27 0.32 0.40 0.44 0.48 0.61 0.74 0.84 0.86 0.88 0.91 0.97 0.98 0.98 0.94 0.91
0.53 0.71 0.88 0.93 1.15 0.93 0.46 0.32 0.36 0.65 0.75 0.38 0.26 0.22 0.18 0.17 0.18 0.15 0.13 0.12 0.12 0.12 0.12 0.12 0.15 0.21 0.25 0.25 0.25 0.26 0.32 0.37 0.44 0.50 0.62 0.70 0.73 0.80 0.91 1.01 1.03 1.06 1.02 0.96
0.65 0.73 0.73 0.84 1.09 0.98 0.47 0.42 0.57 0.63 0.47 0.39 0.32 0.26 0.20 0.15 0.12 0.10 0.10 0.10 0.11 0.11 0.12 0.12 0.15 0.23 0.27 0.27 0.26 0.25 0.29 0.34 0.38 0.40 0.49 0.63 0.73 0.81 0.90 1.01 1.07 1.05 1.05 1.05
0.67 0.73 0.79 0.90 1.01 0.68 0.47 0.52 0.55 0.47 0.42 0.32 0.25 0.21 0.18 0.15 0.13 0.10 0.09 0.11 0.11 0.12 0.12 0.13 0.17 0.23 0.23 0.26 0.29 0.30 0.33 0.35 0.34 0.36 0.41 0.50 0.56 0.61 0.71 0.83 0.96 1.02 1.01 1.01
0.52 0.49 0.60 0.71 0.60 0.40 0.37 0.40 0.37 0.34 0.31 0.25 0.22 0.18 0.16 0.14 0.13 0.12 0.11 0.12 0.12 0.13 0.13 0.15 0.18 0.21 0.21 0.23 0.26 0.29 0.32 0.33 0.34 0.37 0.39 0.42 0.45 0.47 0.55 0.70 0.77 0.83 0.88 0.94
0.46 0.53 0.61 0.68 0.60 0.43 0.35 0.34 0.31 0.29 0.23 0.20 0.23 0.22 0.20 0.17 0.13 0.12 0.10 0.11 0.11 0.12 0.12 0.15 0.17 0.20 0.22 0.22 0.23 0.26 0.27 0.28 0.31 0.35 0.38 0.40 0.43 0.46 0.51 0.59 0.71 0.80 0.85 0.93
0.36 0.48 0.67 0.74 0.62 0.56 0.40 0.31 0.27 0.25 0.21 0.18 0.19 0.21 0.22 0.24 0.22 0.15 0.12 0.11 0.12 0.14 0.14 0.17 0.19 0.20 0.22 0.22 0.22 0.25 0.27 0.29 0.35 0.39 0.39 0.41 0.44 0.48 0.52 0.58 0.67 0.75 0.77 0.79